TIME,DELAY(SENSOR),PRES,T(CTD),SAL,OXYGEN,RAWTEMP,T(OPTODE),TCPHASE,FLUOR,BETA(BETA700),BETA(BETA412),BETA(BETA440),CDOM,C(CSC),ED(ED412.40),ED(ED444.00),ED(ED489.70),ED(ED554.30),LU(LU411.80),LU(LU443.40),LU(LU489.60),LU(LU554.10),COMP,TILTX,TILTX(TILTY),CHECK
1344115465,5809,497.9700012207031000,7.0641999244689940,34.1944007873535160,68.9385833740234400,585.6832275390625000,7.0457878112792970,50.0561904907226560,51,106,88,81,81,15338,2147748114,2147423478,2148001069,2147873270,2147628992,2147082998,2148245531,2147198637,3412,5,13,13932
1344115604,5806,486.7699890136719000,7.2305002212524410,34.1875991821289060,74.5290832519531200,580.5375976562500000,7.2111988067626950,49.2853507995605500,53,107,91,81,80,15337,2147749165,2147420580,2147999835,2147873078,2147629430,2147081024,2148236580,2147201929,566,4,13,2003
1344115745,5808,475.2399902343750000,7.3875999450683590,34.1783981323242200,79.0840682983398400,575.6920166015625000,7.3667469024658200,48.6628799438476560,53,106,86,79,79,15337,2147749147,2147420480,2148000521,2147876406,2147628333,2147079780,2148243894,2147201014,158,5,13,22950
1344115872,5807,464.9200134277344000,7.4805998802185060,34.1710014343261700,86.1594772338867200,571.7963256835938000,7.4916529655456540,47.7767181396484400,52,107,90,81,79,15338,2147749046,2147419739,2148000164,2147875986,2147629558,2147083273,2148238729,2147201398,3435,5,13,13613
1344116011,5807,453.7200012207031000,7.6859998703002930,34.1613006591796900,93.1882095336914000,566.2606811523438000,7.6689047813415530,46.9001998901367200,51,106,88,81,78,15339,2147750601,2147418660,2147999277,2147873892,2147626285,2147085558,2148243364,2147204589,997,4,13,4626
1344116152,5809,443.1600036621094000,7.8587999343872070,34.1408996582031250,107.1738967895507800,560.5499877929688000,7.8514881134033200,45.3250808715820300,51,107,89,80,78,15336,2147748050,2147420653,2148000384,2147870966,2147626048,2147086336,2148237284,2147200640,1140,4,13,25286
1344116315,5807,432.0000000000000000,8.1028003692626950,34.1467018127441400,114.6162033081054700,553.1632080078125000,8.0872478485107420,44.4569206237793000,50,107,89,81,78,15339,2147745792,2147419949,2148000009,2147876352,2147627163,2147089865,2148233938,2147199862,626,4,13,29016
1344116463,5809,420.6000061035156000,8.3037996292114260,34.1595993041992200,113.9814987182617200,546.6232299804688000,8.2956027984619140,44.4144096374511700,51,107,93,79,77,15339,2147744192,2147420059,2148003748,2147872539,2147625792,2147089837,2148232027,2147206464,373,4,13,43472
1344116590,5804,409.7200012207031000,8.5157003402709960,34.1530990600585940,120.9822998046875000,539.6718750000000000,8.5166778564453120,43.6174201965332000,50,108,88,81,77,15339,2147744027,2147417618,2147999963,2147873920,2147624192,2147095012,2148228516,2147202843,600,4,13,10459
1344116731,5809,398.1400146484375000,8.7602996826171880,34.1475982666015600,133.2911987304687500,532.1146240234375000,8.7565879821777340,42.3544006347656250,51,107,87,80,75,15339,2147742966,2147420507,2148000868,2147874834,2147622692,2147096713,2148234761,2147204278,1366,4,13,46188
1344116870,5808,387.3200073242187500,9.1337995529174800,34.1080017089843750,164.0198974609375000,520.9365234375000000,9.1106281280517580,39.6404914855957000,50,106,89,81,73,15346,2147742555,2147420004,2148001728,2147874020,2147621888,2147096969,2148234779,2147203428,2282,4,13,7100
1344117017,5805,376.1400146484375000,9.4626998901367190,34.1157989501953100,184.6345062255859400,510.0318908691406000,9.4551048278808600,37.9856910705566400,50,106,88,80,73,15345,2147743707,2147422070,2148002112,2147874294,2147619328,2147099684,2148227748,2147205449,3398,4,13,32576
1344117133,5812,365.5899963378906000,9.7288999557495120,34.1295013427734400,187.7230987548828000,500.5603942871094000,9.7536115646362300,37.6181716918945300,50,107,87,81,73,15345,2147742473,2147420516,2148000813,2147875300,2147620278,2147099794,2148227968,2147203565,357,4,13,23687
1344117248,5805,354.5599975585937500,10.1974000930786130,34.1422004699707000,200.4553985595703000,485.8294982910156000,10.2166404724121100,36.5571708679199200,48,107,87,81,72,15344,2147738678,2147420580,2148000329,2147872576,2147617024,2147103936,2148225280,2147205878,1265,4,13,60673
1344117365,5808,342.9500122070312500,10.4821996688842770,34.1520996093750000,206.7420043945312500,477.7481994628906000,10.4700403213500980,36.0421295166015600,48,106,88,81,72,15345,2147739309,2147418825,2148005293,2147875721,2147615058,2147112539,2148221677,2147205723,1720,5,13,35567
1344117468,5808,332.3999938964844000,10.9532003402709960,34.1692008972168000,204.7167053222656200,462.3844909667969000,10.9506597518920900,35.9087791442871100,49,106,87,80,70,15342,2147736822,2147423021,2148005220,2147877586,2147614198,2147110665,2148221083,2147202962,2697,3,13,45606
1344117583,5806,321.0899963378906000,11.2665004730224610,34.1823997497558600,199.9898986816406200,452.3883056640625000,11.2625999450683600,36.0320701599121100,50,107,87,80,70,15337,2147735250,2147422025,2148009718,2147873673,2147611392,2147110418,2148222427,2147202541,1706,4,14,27633
1344117700,5812,310.3099975585937500,11.5972003936767580,34.1949005126953100,198.8760070800781200,441.0745849609375000,11.6149702072143550,35.9165611267089840,49,109,91,80,70,15337,2147733430,2147424256,2148012123,2147873956,2147610038,2147113490,2148221229,2147207616,1145,4,13,33049
1344117827,5811,299.6400146484375000,12.1331996917724610,34.2215003967285160,202.1334075927734400,422.3406982421875000,12.1969203948974610,35.4175796508789060,50,107,91,80,69,15340,2147731245,2147426752,2148018596,2147875410,2147605046,2147120073,2148220836,2147208704,820,3,14,25290
1344117968,5810,288.8299865722656000,12.7517004013061520,34.2561988830566400,203.2077941894531200,404.4888000488281000,12.7498502731323240,35.0704994201660160,49,106,88,82,70,15338,2147731355,2147427437,2148026212,2147873325,2147601901,2147129947,2148219017,2147209179,755,3,13,44197
1344118131,5811,278.0100097656250000,13.5831003189086910,34.3213005065918000,203.0771026611328000,377.6299133300781000,13.5790996551513670,34.6603813171386700,49,106,86,80,69,15334,2147730806,2147431881,2148038582,2147872118,2147598061,2147128704,2148225773,2147213568,3563,3,14,7148
1344118313,5812,264.6300048828125000,14.3456001281738280,34.3950996398925800,205.3619995117187500,352.5148010253906000,14.3520202636718750,34.1425018310546900,49,107,89,82,69,15335,2147727625,2147439698,2148062336,2147871625,2147590893,2147143378,2148233444,2147214098,1105,4,13,54574
1344118428,5806,253.6999969482422000,15.1620998382568360,34.4822006225585940,208.9263000488281200,326.7318115234375000,15.1434202194213870,33.5510215759277340,49,105,91,81,68,15333,2147725257,2147451428,2148097746,2147874916,2147590473,2147156909,2148241225,2147210166,2870,3,14,51425
1344118557,5807,241.8699951171875000,15.8514003753662110,34.5574989318847660,210.2409057617187500,303.9981079101562500,15.8398199081420900,33.1431007385253900,49,106,89,81,69,15333,2147725147,2147466989,2148141732,2147873024,2147588845,2147170011,2148263259,2147215241,72,4,13,10995
1344118672,5809,232.0399932861328000,16.6851997375488280,34.6469993591308600,209.9801025390625000,276.8052978515625000,16.6715507507324220,32.7652397155761700,50,109,87,80,67,15326,2147723081,2147488914,2148195968,2147872027,2147585499,2147189275,2148285046,2147218267,400,4,13,15239
1344118847,5809,220.9799957275390600,17.7462997436523440,34.7545013427734400,207.4727935791015600,240.8318939208984400,17.7705497741699220,32.3960189819335940,56,110,88,81,66,15317,2147724800,2147510482,2148237668,2147878610,2147580754,2147206061,2148294628,2147220736,1434,3,15,53324
1344119018,5811,209.3099975585937500,18.6881008148193360,34.8769989013671900,209.5621032714843800,210.5039062500000000,18.6967296600341800,31.8572597503662100,60,107,88,82,66,15315,2147738761,2147596013,2148439049,2147875730,2147581833,2147255826,2148383104,2147227702,438,2,14,39048
1344119145,5808,198.8200073242187500,19.7005004882812500,34.9725990295410160,208.9230957031250000,179.1831970214843800,19.6537208557128900,31.4642391204834000,65,112,86,82,66,15306,2147757824,2147665654,2148565476,2147877686,2147584457,2147294637,2148433024,2147231945,883,3,15,17741
1344119200,5806,194.1900024414062500,19.8815994262695300,35.0043983459472660,210.3919982910156200,172.1721038818359400,19.8680801391601560,31.2890090942382800,67,111,86,82,65,15306,2147774994,2147733970,2148712201,2147874066,2147586331,2147336301,2148494646,2147235840,837,3,15,21292
1344119275,5809,187.7100067138672000,20.1095008850097660,35.0242004394531250,210.9983062744140600,164.4871063232422000,20.1031398773193360,31.1522102355957030,70,113,90,80,65,15302,2147800219,2147834358,2148907273,2147875364,2147597860,2147389266,2148576466,2147241042,478,2,14,25981
1344119330,5809,183.4600067138672000,20.2952995300292970,35.0345001220703100,211.3164062500000000,157.9143981933593800,20.3042392730712900,31.0468292236328120,70,117,90,82,64,15295,2147831350,2147921142,2149070985,2147877842,2147609353,2147431204,2148648009,2147247707,3041,3,15,19421
1344119385,5808,179.5599975585937500,20.3672008514404300,35.0390014648437500,212.2839050292968800,156.0823974609375000,20.3603191375732420,30.9700508117675780,72,113,91,81,65,15298,2147841673,2147936109,2149069266,2147874651,2147611529,2147442505,2148642907,2147251684,3365,2,15,38594
1344119440,5809,175.8099975585937500,20.4202995300292970,35.0427017211914060,212.4974975585937500,152.8330993652343800,20.4597702026367200,30.9152793884277340,73,115,89,82,63,15293,2147864237,2147962422,2149098724,2147877403,2147621010,2147467254,2148664530,2147248950,3216,2,15,12318
1344119495,5808,172.4499969482422000,20.6739997863769530,35.0634002685546900,212.8842010498047000,146.1981964111328000,20.6629390716552730,30.8062496185302730,75,111,90,81,64,15295,2147961984,2148248877,2149672384,2147878372,2147655606,2147610587,2148916077,2147270262,2545,2,15,57615
1344119585,5808,168.1799926757812500,20.9370002746582030,35.0892982482910160,214.4788970947265600,137.8273925781250000,20.9193897247314450,30.6107006072998050,77,117,89,83,63,15290,2148023204,2148372059,2149861878,2147879917,2147678427,2147671616,2149000987,2147278427,2339,2,15,5535
1344119700,5810,165.1900024414062500,21.0606002807617200,35.0993995666503900,215.6741027832031200,133.4673004150390600,21.0530300140380860,30.4902496337890620,81,115,90,82,64,15257,2148093403,2148506834,2150088411,2147884132,2147705426,2147741595,2149093888,2147284388,2234,3,15,22828
1344119839,5807,160.8999938964843800,21.1275997161865230,35.1052017211914060,216.4042968750000000,131.2606048583984400,21.1206798553466800,30.4230804443359380,83,116,90,82,64,15284,2148137444,2148539126,2150072877,2147883803,2147726445,2147767606,2149089618,2147284187,1273,2,16,7276
1344119938,5808,156.4400024414062500,21.3050003051757800,35.1165008544921900,217.0986022949218800,125.8469009399414000,21.2867107391357420,30.3155899047851560,86,119,91,84,62,15276,2148342070,2148970029,2150822070,2147888128,2147805549,2147983424,2149412736,2147310537,1103,3,15,46581
1344120017,5807,152.4900054931640600,21.3843002319335940,35.1254997253418000,217.9391021728515600,122.9644012451171900,21.3751506805419920,30.2345008850097660,87,118,92,82,63,15271,2148527451,2149297526,2151349293,2147891812,2147879917,2148155721,2149645705,2147325348,1624,2,15,5758
1344120108,5810,148.4900054931640600,21.4734001159667970,35.1337013244628900,218.8334045410156200,119.9475021362304700,21.4677295684814450,30.1490001678466800,91,119,92,82,61,15266,2148761654,2149666038,2151897865,2147898386,2147975981,2148331117,2149880704,2147347629,1285,2,16,37947
1344120213,5808,145.0099945068359400,21.5984992980957030,35.1431007385253900,219.8081054687500000,115.8113021850586000,21.5947093963623050,30.0454998016357420,89,119,92,82,62,15269,2149051684,2150075748,2152494838,2147905042,2148094272,2148545956,2150142418,2147369435,934,2,15,61076
1344120352,5808,140.9900054931640600,21.8369998931884770,35.1529998779296900,220.7971038818359400,107.7309036254882800,21.8428993225097660,29.8900203704834000,94,117,92,81,62,15266,2149550720,2150732470,2153380763,2147917165,2148296804,2148879533,2150527030,2147398939,601,2,15,62665
1344120527,5810,136.7799987792968800,22.5202999114990230,35.1922988891601560,225.1549072265625000,87.1746673583984400,22.4752597808837900,29.4080905914306640,102,117,90,83,61,15252,2150252854,2151641865,2154618093,2147929481,2148582235,2149326217,2151044388,2147445604,394,2,15,53003
1344120642,5810,133.3000030517578000,22.8757991790771500,35.2084007263183600,229.0099945068359400,74.9502563476562500,22.8520393371582030,29.0653800964355470,106,117,91,84,62,15243,2150918500,2152544411,2155858496,2147948626,2148872246,2149764041,2151554395,2147492781,601,2,15,16772
1344120828,5809,129.1900024414062500,22.9727001190185550,35.2104988098144500,232.0476074218750000,71.1561965942382800,22.9690895080566400,28.8728904724121100,106,118,91,83,61,15241,2151695680,2153423625,2156892836,2147967497,2149217865,2150178386,2151972754,2147527506,2801,2,16,56997
1344120955,5810,125.0899963378906200,23.2185993194580080,35.2206001281738300,233.8863067626953000,63.4979705810546900,23.2055492401123050,28.6902904510498050,110,117,93,82,60,15233,2152868708,2154754240,2158468278,2147996662,2149752374,2150816603,2152600265,2147587922,1803,2,16,623
1344121129,5807,120.2399978637695300,23.4018001556396500,35.2258987426757800,236.4246063232422000,57.0331916809082000,23.4053497314453120,28.4918193817138670,109,118,89,82,62,15219,2155142006,2157260726,2161366089,2148052114,2150811492,2152020233,2153807652,2147705225,1220,2,16,6325
1344121208,5811,116.5400009155273400,23.5529003143310550,35.2257003784179700,237.3417053222656200,52.5939712524414060,23.5426502227783200,28.3941001892089840,114,118,91,82,60,15218,2157204022,2159575762,2164054582,2148106358,2151766034,2153099154,2154876324,2147806500,1862,2,16,19340
1344121287,5808,112.7200012207031200,23.7840003967285160,35.1987991333007800,237.7577972412109400,46.4289512634277340,23.7334899902343750,28.2984199523925780,123,120,90,83,59,15195,2159472201,2162028708,2166643803,2148166985,2152830208,2154243200,2155965641,2147913728,2202,2,16,28905
1344121390,5811,109.1299972534179700,24.1124992370605470,35.1696014404296900,237.4815063476562500,34.7609786987304700,24.0951595306396500,28.1655406951904300,125,121,93,83,61,15191,2162421860,2165317202,2170182281,2148255698,2154236781,2155715968,2157375268,2148057801,3205,2,16,27084
1344121603,5807,105.7099990844726600,24.2591991424560550,35.1607017517089840,239.2165985107422000,29.7677707672119140,24.2501392364501950,28.0253696441650400,113,120,93,81,60,15195,2165149339,2168204534,2172811410,2148327689,2155711661,2157164818,2158600813,2148183341,905,2,16,2490
1344121813,5810,102.0199966430664000,24.3990001678466800,35.1482009887695300,239.1219940185547000,25.2112293243408200,24.3916797637939450,27.9731693267822270,101,121,91,84,60,15191,2164436534,2166578569,2169498157,2148287762,2155702171,2156549604,2157417536,2148097572,430,2,16,7867
1344121904,5810,99.2200012207031200,24.4528007507324220,35.1468009948730500,239.4777069091797000,23.1301898956298830,24.4563503265380860,27.9314403533935550,99,120,93,84,57,15193,2168607195,2171148224,2174071204,2148416905,2158076790,2159023689,2159604397,2148307739,668,2,16,20090
1344121971,5810,97.4100036621093800,24.8591003417968750,35.1377983093261700,238.5182037353515600,13.3156795501708980,24.7616996765136720,27.8533496856689450,91,121,94,85,58,15203,2166782080,2168805504,2170949321,2148366665,2157449353,2158077970,2158428342,2148201737,1387,3,16,24397
1344122098,5806,95.2799987792968800,24.9591007232666000,35.1360015869140600,239.7355957031250000,7.3124442100524900,24.9487400054931640,27.7247791290283200,85,122,91,85,57,15196,2186161664,2191694418,2196105974,2149037312,2168865974,2170777472,2170453266,2149337892,1948,2,16,672
1344122165,5805,93.0899963378906200,25.0000000000000000,35.1305999755859400,240.4550018310547000,5.8674221038818360,24.9937896728515620,27.6750392913818360,83,121,91,85,57,15193,2190278866,2196229001,2200536448,2149239936,2172370157,2174234084,2173199853,2149593106,1937,2,16,65424
1344122232,5807,90.8600006103515600,25.0398006439209000,35.1260986328125000,240.6031036376953000,4.6905927658081055,25.0304908752441400,27.6542396545410160,77,124,92,85,59,15183,2182273526,2185997110,2188032539,2148914212,2169088027,2170024557,2168587968,2149140032,2173,2,16,18291
1344122287,5807,89.1699981689453100,25.1121006011962900,35.1120986938476560,240.5390014648437500,2.2957289218902590,25.1051902770996100,27.6277008056640620,78,125,92,85,57,15178,2190076233,2195311460,2198235666,2149346276,2174057837,2175384740,2173264393,2149599131,2798,2,16,29138
1344122389,5808,85.9199981689453100,25.1313991546630860,35.1083984375000000,240.7669067382812500,1.4799360036849976,25.1306495666503900,27.6075096130371100,74,125,93,87,56,15169,2200169325,2206436790,2209169792,2149880365,2183044242,2184482925,2180476416,2150257115,2251,2,16,15231
1344122444,5804,83.4100036621093800,25.1718997955322270,35.1060981750488300,240.9974060058593800,0.2565891146659851,25.1688308715820300,27.5823593139648440,71,130,94,86,57,15166,2210900324,2218313197,2220955181,2150470326,2192061650,2193738880,2187872118,2150947885,2077,2,16,26899
1344122499,5807,80.8000030517578100,25.1970996856689450,35.1058006286621100,241.1815032958984400,-0.5645155906677246,25.1944599151611330,27.5640296936035160,68,129,94,85,57,15162,2189774125,2192917074,2192742198,2149474733,2178830930,2178829997,2174097563,2149637906,2568,2,16,59202
1344122554,5806,78.1800003051757800,25.2259998321533200,35.1054992675781250,241.4145050048828000,-1.7121340036392212,25.2302894592285160,27.5397090911865230,67,129,93,87,57,15172,2185969124,2188058651,2187144246,2149360813,2176257673,2175737947,2170891977,2149364754,2513,2,16,2320
1344122609,5808,75.6299972534179700,25.2614002227783200,35.1074981689453100,241.1893005371093800,-2.5450410842895510,25.2562999725341800,27.5395393371582030,65,128,96,87,56,15172,2182656786,2183796470,2182355675,2149237851,2174533266,2173530486,2168580132,2149159040,2451,2,16,45863
1344122664,5806,73.0299987792968800,25.2982006072998050,35.1091995239257800,240.8677978515625000,-3.9893751144409180,25.3014202117919920,27.5360298156738280,62,126,91,85,56,15168,2188935067,2190290514,2188381394,2149655616,2180353307,2179158372,2172649956,2149559606,2408,2,16,45882
1344122721,5807,70.4000015258789000,25.3840007781982420,35.1146011352539060,240.3634033203125000,-6.1414179801940920,25.3686599731445300,27.5319004058837900,62,126,93,86,58,15179,2196907748,2198623862,2196271798,2150232438,2187741302,2186296813,2177867008,2150079241,2846,2,16,11048
1344122776,5807,67.9899978637695300,25.4272003173828120,35.1175003051757800,240.0388946533203000,-7.9924201965332030,25.4265193939209000,27.5236396789550780,61,124,94,85,57,15186,2194081545,2194932864,2192150546,2150152841,2186645732,2184672960,2175992173,2149914230,3569,2,16,21198
1344122831,5810,65.5899963378906200,25.4661006927490230,35.1184005737304700,239.8901062011718800,-9.0831937789917000,25.4606208801269530,27.5169105529785160,65,126,92,87,57,15179,2196172873,2196722998,2193542336,2150410121,2189585316,2187145947,2177374537,2150073645,369,2,17,23681
1344122886,5806,63.2999992370605500,25.4885005950927730,35.1184997558593750,239.9750061035156200,-9.8544359207153320,25.4847393035888670,27.5036201477050780,60,124,93,86,58,15184,2200745344,2201200585,2197655085,2150925238,2194697179,2191796278,2180423780,2150419739,336,2,16,14149
1344122941,5811,61.1100006103515600,25.5023002624511720,35.1184997558593750,240.0433044433593800,-10.2997503280639650,25.4986591339111330,27.4951801300048830,57,124,95,86,56,15184,2204523547,2204798253,2200929700,2151430976,2199330770,2195849289,2183013897,2150728429,114,2,16,11128
1344122996,5807,59.0099983215332000,25.5774993896484380,35.1188011169433600,239.8262023925781200,-12.6597003936767580,25.5724906921386720,27.4759101867675780,57,123,93,86,58,15176,2210537206,2210727497,2206379474,2152168621,2206124489,2201993609,2187066157,2151192859,3590,2,16,28434
1344123053,5806,56.9000015258789060,25.6737003326416000,35.1222000122070300,239.3307952880859400,-15.8029899597167970,25.6708908081054700,27.4593906402587900,58,124,93,85,59,15165,2218577362,2218789174,2213988297,2153270080,2215070646,2210127094,2192590939,2151855698,3453,2,16,56448
1344123108,5804,54.9099998474121100,25.7716007232666000,35.1309013366699200,238.7890014648437500,-18.6214408874511720,25.7591590881347660,27.4490108489990230,58,125,93,85,55,15171,2256900598,2260167954,2255347757,2158198500,2251758720,2246166528,2219173878,2154922624,221,2,16,36022
1344123163,5808,53.0400009155273440,25.7945995330810550,35.1324996948242200,238.5310058593750000,-19.5464000701904300,25.7881393432617200,27.4491996765136720,56,125,92,85,57,15177,2228571117,2228551844,2223264658,2155015917,2228490688,2221777865,2200111168,2152827821,638,2,16,63180
1344123218,5810,50.9500007629394500,25.8157005310058600,35.1337013244628900,238.2126007080078000,-20.3863906860351560,25.8144702911376950,27.4530906677246100,56,123,94,85,57,15167,2239850130,2240187373,2234630829,2157130368,2243022473,2235046646,2209196580,2153980589,1175,2,16,1915
1344123273,5804,48.6399993896484400,25.8659000396728500,35.1383018493652340,237.6002044677734400,-22.2558803558349600,25.8730697631835940,27.4575996398925780,56,124,93,86,55,15169,2236489874,2235934299,2229850843,2157186048,2240646646,2231656256,2205955163,2153764717,1338,2,16,28877
1344123328,5807,46.3300018310546900,25.9393997192382800,35.1450004577636700,236.9895935058593800,-24.0662593841552730,25.9298400878906250,27.4626293182373050,55,123,94,86,55,15180,2249674477,2249667291,2243578240,2160052571,2257877906,2247249974,2216624886,2155212909,1298,2,16,31646
1344123406,5809,42.7099990844726560,25.9585990905761720,35.1475982666015600,236.5774993896484400,-25.1633300781250000,25.9642505645751950,27.4677104949951170,55,123,92,84,58,15174,2362372160,2372211492,2368924772,2184276169,2385180352,2368952265,2304239369,2167178157,1232,2,16,37295
1344123461,5808,39.6599998474121100,25.9633007049560550,35.1481018066406250,236.4647064208984400,-25.3516693115234380,25.9701595306396500,27.4704895019531250,54,125,92,85,56,15179,2339859254,2345998244,2341946358,2184414985,2371145764,2352887424,2290956525,2166160713,831,2,16,16652
1344123516,5806,36.6100006103515600,25.9638996124267580,35.1488990783691400,236.3912963867187500,-25.3714408874511720,25.9707794189453120,27.4735107421875000,53,122,95,86,54,15174,2334102125,2339179958,2335065755,2186923053,2367061778,2346409773,2284578724,2166265417,822,2,16,53863
1344123571,5807,33.5900001525878900,25.9675998687744140,35.1484985351562500,236.4577026367187500,-25.4477500915527340,25.9731807708740230,27.4696598052978500,53,120,92,84,58,15173,2310824530,2313516324,2309323300,2185732626,2347393563,2325518656,2268699821,2164913993,828,1,16,11378
1344123626,5808,30.6399993896484380,25.9683990478515620,35.1495018005371100,236.5167999267578000,-25.6822109222412100,25.9805297851562500,27.4640293121337900,54,119,92,82,54,15178,2402914432,2412701065,2412432155,2221123465,2466302637,2435767369,2346407314,2178559122,683,1,16,62193
1344123681,5808,27.6499996185302730,25.9710006713867200,35.1483993530273440,236.6022949218750000,-25.8743896484375000,25.9865608215332030,27.4580097198486330,53,120,94,85,58,15179,2428758409,2440591140,2443012306,2241726189,2504163986,2469536621,2368774683,2184690825,679,2,15,60106
1344123738,5810,24.5300006866455080,25.9717006683349600,35.1487998962402340,236.7884063720703000,-25.9882698059082030,25.9901409149169920,27.4482402801513670,53,119,95,84,52,15176,2484197778,2500776109,2507196708,2279255021,2574239314,2533592246,2414369005,2197204032,723,2,15,36627
